Change the Weather History Date:

Sunday, March 17, 2013

  Actual Average Record
Temperature  
Mean Temperature 26 °F -  
Max Temperature 37 °F - - ()
Min Temperature 14 °F - - ()
Degree Days  
Heating Degree Days 40    
Moisture  
Dew Point 13 °F    
Average Humidity 55    
Maximum Humidity 86    
Minimum Humidity 38    
Precipitation  
Precipitation 0.00 in - - ()
Sea Level Pressure  
Sea Level Pressure 30.00 in    
Wind  
Wind Speed 9 mph ()    
Max Wind Speed 20 mph    
Max Gust Speed 29 mph    
Visibility 6.2 miles    
Events      
T = Trace of Precipitation, MM = Missing Value Source: Averaged Metar Reports

Daily Weather History Graph

Daily Weather History Graph

Search for Another Location

Airport or City:

Trip Planner

Search our weather history database for the weather conditions in past years. The results will help you decide how hot, cold, wet, or windy it might be!

Date:

Astronomy

Mar. 17, 2013 Rise Set
Actual Time 5:59 AM CET 5:58 PM CET
Civil Twilight 5:27 AM CET 6:30 PM CET
Nautical Twilight 4:50 AM CET 7:07 PM CET
Astronomical Twilight 4:12 AM CET 7:46 PM CET
Moon 8:29 AM CET (3/17) No Moon Set
Length of Visible Light 13h 02m
Length of Day
11h 59m
Waxing Crescent, 29% of the Moon is Illuminated
Mar 17
Waxing Crescent
Mar 19
First Quarter
Mar 27
Full
Apr 3
Last Quarter
Apr 10
New

Hourly Weather History & Observations

Time (CET) Temp. Windchill Dew Point Humidity Pressure Visibility Wind Dir Wind Speed Gust Speed Precip Events Conditions
12:00 AM 19.4 °F 12.8 °F 12.2 °F 74% 30.09 in - East 4.6 mph - N/A   Clear
1:00 AM 19.4 °F 12.8 °F 10.4 °F 68% 30.12 in - East 4.6 mph - N/A   Clear
2:00 AM 17.6 °F 9.3 °F 10.4 °F 73% 30.09 in - ENE 5.8 mph - N/A   Clear
3:00 AM 15.8 °F 6.1 °F 10.4 °F 79% 30.09 in - East 6.9 mph - N/A   Clear
4:00 AM 15.8 °F 7.2 °F 10.4 °F 79% 30.06 in - East 5.8 mph - N/A   Clear
5:00 AM 14.0 °F 3.9 °F 10.4 °F 86% 30.06 in - East 6.9 mph - N/A   Clear
6:00 AM 14.0 °F 5.1 °F 10.4 °F 86% 30.06 in - East 5.8 mph - N/A   Clear
7:00 AM 17.6 °F 10.7 °F 10.4 °F 73% 30.06 in - East 4.6 mph - N/A   Clear
8:00 AM 26.6 °F 22.6 °F 14.0 °F 59% 30.06 in - East 3.5 mph - N/A   Clear
9:00 AM 30.2 °F 20.8 °F 14.0 °F 51% 30.04 in - SSE 11.5 mph - N/A   Clear
10:00 AM 32.0 °F 22.1 °F 12.2 °F 44% 30.04 in - SSE 13.8 mph - N/A   Clear
11:00 AM 33.8 °F 22.8 °F 12.2 °F 41% 30.04 in - South 18.4 mph - N/A   Clear
11:22 AM 35.6 °F 25.9 °F 12.2 °F 38% 30.01 in - South 16.1 mph 27.6 mph N/A   Clear
12:00 PM 35.6 °F 24.8 °F 12.2 °F 38% 30.01 in 6.2 mi South 19.6 mph - N/A   Scattered Clouds
12:21 PM 35.6 °F 25.2 °F 14.0 °F 41% 30.01 in 6.2 mi South 18.4 mph 28.8 mph N/A   Scattered Clouds
1:00 PM 37.4 °F 27.5 °F 14.0 °F 38% 30.01 in 6.2 mi South 18.4 mph - N/A   Partly Cloudy
2:00 PM 37.4 °F 27.8 °F 14.0 °F 38% 29.98 in - South 17.3 mph - N/A   Clear
3:00 PM 37.4 °F 27.5 °F 15.8 °F 41% 29.95 in - South 18.4 mph 28.8 mph N/A   Clear
4:00 PM 35.6 °F 25.9 °F 14.0 °F 41% 29.95 in - South 16.1 mph - N/A   Clear
5:00 PM 33.8 °F 23.5 °F 14.0 °F 44% 29.95 in - South 16.1 mph - N/A   Clear
6:00 PM 32.0 °F 22.5 °F 15.8 °F 51% 29.92 in - South 12.7 mph - N/A   Clear
7:00 PM 32.0 °F 22.5 °F 14.0 °F 48% 29.92 in - SSE 12.7 mph - N/A   Clear
8:00 PM 32.0 °F 23.0 °F 15.8 °F 51% 29.92 in - South 11.5 mph - N/A   Clear
9:00 PM 32.0 °F 24.2 °F 14.0 °F 48% 29.89 in - SSE 9.2 mph - N/A   Clear
10:00 PM 32.0 °F 24.2 °F 15.8 °F 51% 29.86 in 6.2 mi SSE 9.2 mph - N/A   Overcast
11:00 PM 32.0 °F 24.2 °F 15.8 °F 51% 29.86 in 6.2 mi SSE 9.2 mph - N/A   Overcast